DLH6767 KLAX-KPDX

Flight info

Callsign DLH6767
Flight time N/A
Altitude 40000
Route LADYJ4 CSTRO SHIMR LMT MOXEE TMBRS3
Aircraft A35K/H-SDE2E3GHIJ3J4J5LM1ORWXY/LB1D1

Departure

Time 2026-05-05 17:54
Airport Los Angeles International Airport (KLAX)

Arrival

Time N/A
Airport Portland International Airport (KPDX)
Time Latitude Longitude Altitude Speed Heading
2026-05-05 17:15 33.93942 -118.41075 132 ft 0 kts 83°
2026-05-05 17:43 33.93942 -118.41077 132 ft 3 kts 83°
2026-05-05 17:43 33.93940 -118.41100 125 ft 3 kts 83°
2026-05-05 17:43 33.93937 -118.41123 128 ft 3 kts 96°
2026-05-05 17:43 33.93943 -118.41146 128 ft 3 kts 134°
2026-05-05 17:44 33.93953 -118.41157 130 ft 0 kts 159°
2026-05-05 17:48 33.93951 -118.41156 129 ft 0 kts 159°
2026-05-05 17:48 33.93948 -118.41155 129 ft 0 kts 160°
2026-05-05 17:49 33.93865 -118.41172 129 ft 15 kts 214°
2026-05-05 17:49 33.93874 -118.41260 132 ft 10 kts 330°
2026-05-05 17:49 33.93951 -118.41276 129 ft 13 kts 353°
2026-05-05 17:49 33.94048 -118.41289 129 ft 15 kts 353°
2026-05-05 17:50 33.94186 -118.41309 126 ft 23 kts 354°
2026-05-05 17:50 33.94351 -118.41334 128 ft 25 kts 353°
2026-05-05 17:50 33.94528 -118.41361 126 ft 27 kts 353°
2026-05-05 17:50 33.94697 -118.41387 124 ft 17 kts 353°
2026-05-05 17:51 33.94781 -118.41364 120 ft 9 kts 67°
2026-05-05 17:51 33.94792 -118.41285 127 ft 11 kts 82°
2026-05-05 17:51 33.94807 -118.41168 129 ft 16 kts 80°
2026-05-05 17:51 33.94824 -118.41017 128 ft 20 kts 83°
2026-05-05 17:52 33.94843 -118.40833 131 ft 24 kts 83°
2026-05-05 17:52 33.94866 -118.40606 123 ft 30 kts 83°
2026-05-05 17:52 33.94894 -118.40339 131 ft 34 kts 83°
2026-05-05 17:52 33.94919 -118.40102 126 ft 13 kts 83°
2026-05-05 17:53 33.94925 -118.40033 131 ft 1 kts 83°
2026-05-05 17:53 33.94929 -118.39999 131 ft 7 kts 80°
2026-05-05 17:53 33.94943 -118.39961 126 ft 16 kts 56°
2026-05-05 17:53 33.95037 -118.39989 131 ft 15 kts 263°
2026-05-05 17:54 33.95017 -118.40173 124 ft 49 kts 263°
2026-05-05 17:54 33.94945 -118.40883 129 ft 120 kts 262°
2026-05-05 17:54 33.94824 -118.42113 281 ft 167 kts 263°
2026-05-05 17:54 33.94691 -118.43528 1085 ft 171 kts 265°
2026-05-05 17:55 33.94606 -118.44947 2135 ft 170 kts 265°
2026-05-05 17:55 33.94554 -118.46244 2923 ft 172 kts 268°
2026-05-05 17:55 33.94516 -118.47735 3578 ft 185 kts 265°
2026-05-05 17:55 33.94359 -118.49363 4003 ft 209 kts 263°
2026-05-05 17:56 33.94102 -118.51208 4345 ft 238 kts 260°
2026-05-05 17:56 33.93896 -118.53203 4765 ft 242 kts 267°
2026-05-05 17:56 33.93809 -118.55252 5598 ft 248 kts 269°
2026-05-05 17:56 33.93750 -118.57348 6443 ft 253 kts 269°
2026-05-05 17:57 33.93605 -118.59488 7257 ft 259 kts 266°
2026-05-05 17:57 33.93543 -118.61707 7705 ft 269 kts 281°
2026-05-05 17:57 33.94254 -118.63751 8006 ft 268 kts 309°
2026-05-05 17:57 33.95704 -118.65124 8048 ft 271 kts 330°
2026-05-05 17:58 33.97357 -118.66221 7814 ft 269 kts 330°
2026-05-05 17:58 33.98959 -118.67417 8047 ft 272 kts 332°
2026-05-05 17:58 34.00703 -118.68252 8367 ft 272 kts 348°
2026-05-05 17:58 34.02611 -118.68242 9167 ft 278 kts
2026-05-05 17:59 34.04515 -118.67836 10249 ft 280 kts
2026-05-05 17:59 34.06512 -118.67499 10799 ft 301 kts
2026-05-05 17:59 34.08658 -118.67087 11220 ft 324 kts 10°
2026-05-05 17:59 34.10945 -118.66507 11664 ft 346 kts 11°
2026-05-05 18:00 34.13320 -118.65905 12302 ft 360 kts 11°
2026-05-05 18:00 34.15802 -118.65291 13099 ft 368 kts 10°
2026-05-05 18:00 34.18328 -118.64681 13963 ft 373 kts 10°
2026-05-05 18:00 34.20891 -118.64068 14724 ft 378 kts 10°
2026-05-05 18:01 34.23494 -118.63531 15510 ft 382 kts
2026-05-05 18:01 34.26158 -118.63628 16273 ft 385 kts 351°
2026-05-05 18:01 34.28810 -118.64180 17063 ft 389 kts 348°
2026-05-05 18:01 34.31477 -118.64803 17885 ft 393 kts 349°
2026-05-05 18:02 34.34178 -118.65434 18662 ft 397 kts 349°
2026-05-05 18:02 34.36906 -118.66064 19390 ft 402 kts 349°
2026-05-05 18:02 34.39661 -118.66697 20179 ft 405 kts 349°
2026-05-05 18:02 34.42442 -118.67335 20946 ft 409 kts 349°
2026-05-05 18:03 34.45255 -118.67948 21728 ft 413 kts 351°
2026-05-05 18:03 34.48105 -118.68492 22484 ft 417 kts 351°
2026-05-05 18:03 34.50988 -118.69037 23247 ft 421 kts 351°
2026-05-05 18:03 34.53893 -118.69592 23948 ft 425 kts 351°
2026-05-05 18:04 34.56823 -118.70158 24514 ft 429 kts 351°
2026-05-05 18:04 34.59789 -118.70734 24552 ft 434 kts 351°
2026-05-05 18:04 34.62758 -118.71315 24561 ft 430 kts 352°
2026-05-05 18:04 34.65696 -118.71890 24553 ft 426 kts 352°
2026-05-05 18:05 34.68618 -118.72472 24550 ft 424 kts 351°
2026-05-05 18:05 34.71485 -118.73315 24560 ft 425 kts 343°
2026-05-05 18:05 34.74216 -118.74690 24570 ft 425 kts 334°
2026-05-05 18:05 34.76820 -118.76403 24559 ft 426 kts 333°
2026-05-05 18:06 34.79414 -118.78186 24591 ft 435 kts 332°
2026-05-05 18:06 34.81218 -118.79431 24579 ft 445 kts 332°
2026-05-05 18:06 34.84721 -118.81850 24589 ft 430 kts 332°
2026-05-05 18:06 34.87312 -118.83637 24593 ft 427 kts 333°
2026-05-05 18:07 34.89918 -118.85428 24578 ft 430 kts 332°
2026-05-05 18:07 34.92519 -118.87219 24582 ft 428 kts 333°
2026-05-05 18:07 34.95107 -118.89001 24579 ft 427 kts 332°
2026-05-05 18:07 34.97693 -118.90787 24588 ft 427 kts 332°
2026-05-05 18:08 35.00277 -118.92571 24620 ft 427 kts 332°
2026-05-05 18:08 35.02870 -118.94361 24803 ft 430 kts 332°
2026-05-05 18:08 35.05482 -118.96166 25380 ft 432 kts 333°
2026-05-05 18:08 35.08083 -118.97963 26290 ft 429 kts 333°
2026-05-05 18:09 35.10691 -118.99767 26908 ft 433 kts 334°
2026-05-05 18:09 35.13332 -119.01595 27445 ft 439 kts 334°
2026-05-05 18:09 35.16000 -119.03443 28020 ft 443 kts 334°
2026-05-05 18:09 35.18693 -119.05309 28586 ft 447 kts 334°
2026-05-05 18:10 35.21409 -119.07195 29155 ft 451 kts 335°
2026-05-05 18:10 35.24148 -119.09097 29703 ft 455 kts 335°
2026-05-05 18:10 35.26915 -119.11020 30201 ft 459 kts 335°
2026-05-05 18:10 35.29703 -119.12958 30587 ft 463 kts 335°
2026-05-05 18:11 35.32520 -119.14919 30934 ft 468 kts 335°
2026-05-05 18:11 35.35364 -119.16900 31277 ft 473 kts 334°
2026-05-05 18:11 35.38231 -119.18900 31382 ft 475 kts 335°
2026-05-05 18:12 35.43971 -119.22912 31406 ft 476 kts 335°
2026-05-05 18:12 35.46858 -119.24927 31697 ft 478 kts 335°
2026-05-05 18:12 35.49741 -119.26939 32320 ft 475 kts 335°
2026-05-05 18:12 35.52619 -119.28939 32840 ft 475 kts 335°
2026-05-05 18:13 35.55506 -119.30933 33255 ft 477 kts 335°
2026-05-05 18:13 35.58398 -119.32937 33702 ft 477 kts 335°
2026-05-05 18:13 35.61268 -119.34976 34200 ft 477 kts 335°
2026-05-05 18:13 35.64142 -119.37013 34573 ft 477 kts 335°
2026-05-05 18:14 35.67024 -119.39028 34951 ft 476 kts 335°
2026-05-05 18:14 35.69916 -119.41022 35322 ft 476 kts 335°
2026-05-05 18:14 35.72812 -119.42989 35685 ft 476 kts 335°
2026-05-05 18:14 35.75720 -119.44938 36028 ft 476 kts 335°
2026-05-05 18:15 35.78623 -119.46887 36416 ft 474 kts 335°
2026-05-05 18:15 35.81523 -119.48819 36788 ft 474 kts 335°
2026-05-05 18:15 35.84390 -119.50705 37104 ft 474 kts 335°
2026-05-05 18:15 35.87308 -119.52600 37420 ft 474 kts 335°
2026-05-05 18:16 35.90281 -119.54472 37726 ft 473 kts 338°
2026-05-05 18:16 35.93287 -119.55948 38017 ft 471 kts 344°
2026-05-05 18:16 35.96442 -119.56996 38340 ft 468 kts 349°
2026-05-05 18:16 35.99622 -119.57842 38663 ft 468 kts 351°
2026-05-05 18:17 36.02820 -119.58587 38889 ft 468 kts 351°
2026-05-05 18:17 36.06029 -119.59288 39113 ft 469 kts 351°
2026-05-05 18:17 36.09244 -119.59978 39364 ft 469 kts 351°
2026-05-05 18:17 36.12458 -119.60673 39581 ft 470 kts 351°
2026-05-05 18:18 36.15678 -119.61380 39765 ft 470 kts 351°
2026-05-05 18:18 36.18901 -119.62097 39952 ft 470 kts 351°
2026-05-05 18:18 36.22124 -119.62821 40059 ft 472 kts 351°
2026-05-05 18:19 36.28590 -119.64287 40074 ft 472 kts 351°
2026-05-05 18:19 36.35053 -119.65756 40072 ft 473 kts 351°
2026-05-05 18:20 36.41522 -119.67228 40072 ft 473 kts 351°
2026-05-05 18:20 36.47993 -119.68701 40066 ft 473 kts 351°
2026-05-05 18:21 36.54460 -119.70175 40061 ft 474 kts 351°
2026-05-05 18:21 36.60933 -119.71655 40067 ft 472 kts 352°
2026-05-05 18:22 36.67381 -119.73132 40082 ft 471 kts 352°
2026-05-05 18:22 36.73828 -119.74610 40065 ft 471 kts 352°
2026-05-05 18:23 36.80230 -119.76080 40064 ft 471 kts 352°
2026-05-05 18:23 36.86676 -119.77562 40062 ft 471 kts 352°
2026-05-05 18:24 36.93118 -119.79046 40058 ft 471 kts 352°
2026-05-05 18:24 36.99557 -119.80533 40055 ft 469 kts 352°
2026-05-05 18:25 37.05973 -119.82016 40048 ft 469 kts 352°
2026-05-05 18:25 37.12386 -119.83503 40048 ft 468 kts 352°
2026-05-05 18:26 37.18779 -119.84986 40048 ft 466 kts 353°
2026-05-05 18:26 37.25157 -119.86467 40054 ft 466 kts 353°
2026-05-05 18:27 37.31529 -119.87950 40053 ft 466 kts 353°
2026-05-05 18:27 37.37895 -119.89435 40053 ft 465 kts 353°
2026-05-05 18:28 37.47452 -119.91668 40055 ft 466 kts 353°
2026-05-05 18:28 37.53819 -119.93159 40052 ft 466 kts 353°
2026-05-05 18:29 37.57555 -119.94036 40049 ft 466 kts 353°
2026-05-05 18:30 37.63323 -119.95391 40061 ft 466 kts 353°
2026-05-05 18:31 37.69696 -119.96891 40059 ft 466 kts 353°
2026-05-05 18:31 37.76065 -119.98392 40064 ft 466 kts 353°
2026-05-05 18:32 37.82423 -119.99893 40056 ft 464 kts 353°
2026-05-05 18:32 37.88778 -120.01394 40054 ft 464 kts 353°
2026-05-05 18:33 37.95126 -120.02911 40048 ft 464 kts 353°
2026-05-05 18:33 38.01454 -120.04438 40043 ft 462 kts 353°
2026-05-05 18:34 38.07769 -120.05950 40052 ft 462 kts 353°
2026-05-05 18:34 38.13124 -120.07216 40035 ft 462 kts 353°
2026-05-05 18:35 38.19523 -120.08735 40042 ft 460 kts 353°
2026-05-05 18:35 38.25849 -120.10663 40035 ft 463 kts 348°
2026-05-05 18:36 38.28206 -120.11545 40024 ft 463 kts 349°
2026-05-05 18:36 38.34688 -120.14064 40022 ft 464 kts 348°
2026-05-05 18:37 38.59272 -120.23783 40023 ft 461 kts 348°
2026-05-05 18:37 38.71688 -120.27716 39903 ft 457 kts 357°
2026-05-05 18:37 38.84169 -120.27226 39795 ft 446 kts 17°
2026-05-05 18:38 38.95027 -120.20228 39779 ft 437 kts 42°
2026-05-05 18:38 39.00656 -120.10402 39622 ft 442 kts 64°
2026-05-05 18:38 39.02284 -120.03184 39563 ft 448 kts 78°
2026-05-05 18:39 39.02387 -119.95129 39640 ft 456 kts 92°
2026-05-05 18:39 39.00840 -119.87162 39686 ft 466 kts 106°
2026-05-05 18:40 38.97852 -119.79691 39730 ft 475 kts 117°
2026-05-05 18:40 38.93696 -119.73036 39622 ft 488 kts 129°